EJA337 KAGS-KTCL

Flight info

Callsign EJA337
Flight time N/A
Altitude 36000
Route JUNPR6 NOKIE LGC
Aircraft E55P/M-SBDFGHJ2RWY/LB2

Departure

Time 2026-05-07 02:26
Airport Augusta Regional At Bush Field (KAGS)

Arrival

Time N/A
Airport Tuscaloosa National Airport (KTCL)
Time Latitude Longitude Altitude Speed Heading
2026-05-07 02:09 33.37259 -81.97160 144 ft 0 kts 348°
2026-05-07 02:21 33.37260 -81.97160 144 ft 0 kts 348°
2026-05-07 02:21 33.37266 -81.97161 144 ft 1 kts 18°
2026-05-07 02:21 33.37271 -81.97142 144 ft 4 kts 79°
2026-05-07 02:21 33.37280 -81.97095 143 ft 6 kts 55°
2026-05-07 02:22 33.37322 -81.97092 144 ft 6 kts 348°
2026-05-07 02:22 33.37372 -81.97105 144 ft 7 kts 348°
2026-05-07 02:22 33.37427 -81.97119 144 ft 8 kts 348°
2026-05-07 02:22 33.37473 -81.97095 144 ft 7 kts 76°
2026-05-07 02:23 33.37500 -81.97039 144 ft 9 kts 14°
2026-05-07 02:23 33.37572 -81.97052 144 ft 12 kts 348°
2026-05-07 02:23 33.37668 -81.97076 144 ft 16 kts 348°
2026-05-07 02:23 33.37785 -81.97106 145 ft 17 kts 351°
2026-05-07 02:24 33.37903 -81.97134 145 ft 17 kts 347°
2026-05-07 02:24 33.38020 -81.97163 144 ft 17 kts 348°
2026-05-07 02:24 33.38141 -81.97194 144 ft 16 kts 349°
2026-05-07 02:24 33.38213 -81.97160 144 ft 10 kts 81°
2026-05-07 02:25 33.38221 -81.97088 143 ft 6 kts 105°
2026-05-07 02:25 33.38168 -81.97066 144 ft 20 kts 167°
2026-05-07 02:25 33.37744 -81.96960 144 ft 101 kts 169°
2026-05-07 02:25 33.36902 -81.96767 474 ft 131 kts 171°
2026-05-07 02:26 33.36004 -81.96564 1219 ft 137 kts 173°
2026-05-07 02:26 33.35087 -81.96350 1968 ft 143 kts 175°
2026-05-07 02:26 33.34070 -81.96135 2626 ft 155 kts 177°
2026-05-07 02:26 33.33045 -81.95782 3537 ft 156 kts 167°
2026-05-07 02:27 33.32032 -81.95341 4328 ft 160 kts 168°
2026-05-07 02:27 33.31004 -81.94881 5108 ft 163 kts 170°
2026-05-07 02:27 33.29933 -81.94894 5780 ft 159 kts 211°
2026-05-07 02:27 33.29024 -81.95611 6509 ft 164 kts 217°
2026-05-07 02:28 33.28049 -81.96446 7041 ft 183 kts 221°
2026-05-07 02:28 33.27006 -81.97443 7557 ft 204 kts 222°
2026-05-07 02:28 33.25850 -81.98572 8097 ft 224 kts 223°
2026-05-07 02:28 33.24600 -81.99816 8605 ft 243 kts 223°
2026-05-07 02:29 33.23266 -82.01148 9107 ft 261 kts 224°
2026-05-07 02:29 33.21823 -82.02590 9611 ft 277 kts 224°
2026-05-07 02:29 33.20329 -82.04089 10129 ft 290 kts 224°
2026-05-07 02:29 33.18773 -82.05637 10924 ft 293 kts 224°
2026-05-07 02:30 33.17221 -82.07181 11807 ft 292 kts 225°
2026-05-07 02:30 33.15675 -82.08725 12572 ft 294 kts 224°
2026-05-07 02:30 33.14115 -82.10289 13330 ft 296 kts 224°
2026-05-07 02:30 33.12517 -82.11877 13957 ft 302 kts 225°
2026-05-07 02:31 33.10896 -82.13489 14697 ft 304 kts 225°
2026-05-07 02:31 33.09283 -82.15098 15334 ft 309 kts 225°
2026-05-07 02:31 33.07618 -82.16756 15979 ft 314 kts 225°
2026-05-07 02:31 33.05933 -82.18436 16590 ft 318 kts 225°
2026-05-07 02:32 33.04233 -82.20120 17220 ft 322 kts 226°
2026-05-07 02:32 33.02518 -82.21828 17834 ft 325 kts 226°
2026-05-07 02:32 33.00776 -82.23564 18406 ft 329 kts 226°
2026-05-07 02:32 32.99014 -82.25314 19068 ft 329 kts 225°
2026-05-07 02:33 32.97259 -82.27053 19601 ft 333 kts 226°
2026-05-07 02:33 32.95468 -82.28824 20213 ft 334 kts 225°
2026-05-07 02:33 32.93681 -82.30595 20797 ft 335 kts 225°
2026-05-07 02:33 32.91975 -82.32471 21359 ft 330 kts 237°
2026-05-07 02:34 32.91076 -82.34891 21853 ft 324 kts 259°
2026-05-07 02:34 32.90838 -82.37550 22496 ft 321 kts 267°
2026-05-07 02:34 32.90847 -82.40155 23230 ft 317 kts 270°
2026-05-07 02:34 32.90951 -82.42757 23825 ft 316 kts 273°
2026-05-07 02:35 32.91122 -82.45352 24378 ft 317 kts 274°
2026-05-07 02:35 32.91311 -82.47968 24967 ft 316 kts 274°
2026-05-07 02:35 32.91504 -82.50517 25614 ft 313 kts 275°
2026-05-07 02:35 32.91708 -82.53079 26226 ft 311 kts 275°
2026-05-07 02:36 32.91913 -82.55641 26728 ft 312 kts 275°
2026-05-07 02:36 32.92121 -82.58177 27274 ft 311 kts 275°
2026-05-07 02:36 32.92319 -82.60730 27875 ft 308 kts 275°
2026-05-07 02:36 32.92519 -82.63275 28376 ft 309 kts 275°
2026-05-07 02:37 32.92719 -82.65795 28848 ft 310 kts 275°
2026-05-07 02:37 32.92919 -82.68350 29432 ft 308 kts 275°
2026-05-07 02:37 32.93125 -82.70849 29950 ft 307 kts 275°
2026-05-07 02:37 32.93324 -82.73379 30531 ft 305 kts 275°
2026-05-07 02:38 32.93514 -82.75854 31031 ft 304 kts 275°
2026-05-07 02:38 32.93715 -82.78356 31575 ft 302 kts 275°
2026-05-07 02:38 32.93905 -82.80831 32152 ft 299 kts 275°
2026-05-07 02:38 32.94099 -82.83311 32626 ft 299 kts 275°
2026-05-07 02:39 32.94294 -82.85774 33120 ft 298 kts 275°
2026-05-07 02:39 32.94483 -82.88256 33713 ft 295 kts 274°
2026-05-07 02:39 32.94670 -82.90684 34318 ft 291 kts 274°
2026-05-07 02:39 32.94857 -82.93085 34941 ft 288 kts 275°
2026-05-07 02:40 32.95037 -82.95481 35541 ft 285 kts 274°
2026-05-07 02:40 32.95219 -82.97803 35927 ft 287 kts 275°
2026-05-07 02:40 32.95406 -83.00236 35943 ft 294 kts 274°
2026-05-07 02:40 32.95584 -83.02670 35939 ft 301 kts 274°
2026-05-07 02:41 32.95971 -83.07722 35943 ft 312 kts 275°
2026-05-07 02:41 32.96368 -83.12926 35942 ft 323 kts 275°
2026-05-07 02:42 32.96768 -83.18330 35951 ft 332 kts 275°
2026-05-07 02:42 32.97182 -83.23860 35953 ft 340 kts 275°
2026-05-07 02:43 32.97611 -83.29518 35959 ft 347 kts 275°
2026-05-07 02:43 32.98030 -83.35245 35971 ft 353 kts 275°
2026-05-07 02:44 32.98463 -83.41112 35964 ft 358 kts 276°
2026-05-07 02:44 32.98891 -83.47069 35965 ft 363 kts 276°
2026-05-07 02:45 32.99325 -83.53064 35963 ft 367 kts 275°
2026-05-07 02:45 32.99765 -83.59113 35967 ft 370 kts 275°
2026-05-07 02:46 33.00199 -83.65232 35965 ft 373 kts 275°
2026-05-07 02:46 33.00639 -83.71395 35966 ft 376 kts 275°
2026-05-07 02:47 33.01077 -83.77622 35962 ft 379 kts 276°
2026-05-07 02:47 33.01512 -83.83855 35961 ft 381 kts 276°
2026-05-07 02:48 33.01952 -83.90181 35950 ft 383 kts 275°
2026-05-07 02:48 33.02388 -83.96502 35951 ft 385 kts 275°
2026-05-07 02:49 33.02822 -84.02871 35961 ft 386 kts 276°
2026-05-07 02:49 33.03254 -84.09235 35962 ft 387 kts 275°
2026-05-07 02:50 33.03686 -84.15636 35970 ft 389 kts 275°
2026-05-07 02:50 33.04121 -84.22054 35960 ft 389 kts 275°
2026-05-07 02:51 33.04541 -84.28455 35971 ft 389 kts 275°
2026-05-07 02:51 33.04962 -84.34914 35968 ft 389 kts 275°
2026-05-07 02:52 33.05377 -84.41242 35968 ft 381 kts 275°
2026-05-07 02:52 33.05782 -84.47475 35962 ft 372 kts 275°
2026-05-07 02:53 33.06173 -84.53530 35945 ft 364 kts 275°
2026-05-07 02:53 33.06551 -84.59460 35952 ft 356 kts 275°
2026-05-07 02:54 33.06924 -84.65336 35953 ft 356 kts 275°
2026-05-07 02:54 33.07294 -84.71269 35980 ft 357 kts 275°
2026-05-07 02:55 33.07666 -84.77130 35964 ft 358 kts 275°
2026-05-07 02:55 33.08030 -84.83113 35964 ft 363 kts 275°
2026-05-07 02:56 33.08410 -84.89174 35961 ft 367 kts 274°
2026-05-07 02:56 33.08778 -84.95247 35989 ft 371 kts 273°
2026-05-07 02:57 33.09149 -85.01419 35988 ft 374 kts 275°
2026-05-07 02:57 33.09518 -85.07597 35932 ft 377 kts 275°
2026-05-07 02:58 33.09898 -85.13857 35943 ft 379 kts 274°
2026-05-07 02:58 33.10262 -85.20111 35933 ft 380 kts 274°
2026-05-07 02:59 33.10625 -85.26430 35595 ft 384 kts 274°
2026-05-07 02:59 33.10818 -85.29579 35306 ft 376 kts 274°
2026-05-07 02:59 33.10990 -85.32616 35010 ft 369 kts 273°
2026-05-07 03:00 33.11162 -85.35656 34718 ft 363 kts 274°
2026-05-07 03:00 33.11333 -85.38659 34366 ft 360 kts 273°
2026-05-07 03:00 33.11499 -85.41586 34083 ft 356 kts 274°
2026-05-07 03:00 33.11670 -85.44553 33777 ft 353 kts 273°
2026-05-07 03:01 33.11840 -85.47467 33473 ft 357 kts 273°
2026-05-07 03:01 33.12000 -85.50436 33180 ft 362 kts 273°
2026-05-07 03:01 33.12169 -85.53423 32897 ft 367 kts 273°
2026-05-07 03:01 33.12341 -85.56468 32631 ft 372 kts 273°
2026-05-07 03:02 33.12507 -85.59573 32358 ft 377 kts 273°
2026-05-07 03:02 33.12683 -85.62692 32089 ft 381 kts 272°
2026-05-07 03:02 33.12863 -85.65884 31777 ft 384 kts 273°
2026-05-07 03:02 33.13031 -85.69061 31523 ft 387 kts 272°
2026-05-07 03:03 33.13202 -85.72276 31261 ft 389 kts 272°
2026-05-07 03:03 33.13390 -85.75433 30803 ft 378 kts 272°
2026-05-07 03:03 33.13538 -85.78449 30273 ft 359 kts 272°
2026-05-07 03:03 33.13702 -85.81383 29772 ft 341 kts 273°
2026-05-07 03:04 33.13853 -85.84136 29305 ft 328 kts 272°
2026-05-07 03:04 33.13993 -85.86783 28872 ft 316 kts 272°
2026-05-07 03:04 33.14129 -85.89384 28458 ft 305 kts 272°
2026-05-07 03:04 33.14324 -85.91871 27785 ft 303 kts 278°
2026-05-07 03:05 33.14782 -85.94271 27222 ft 296 kts 279°
2026-05-07 03:05 33.15214 -85.96645 26736 ft 294 kts 279°
2026-05-07 03:05 33.15671 -85.99000 26311 ft 293 kts 280°
2026-05-07 03:05 33.16117 -86.01345 25888 ft 294 kts 280°
2026-05-07 03:06 33.16591 -86.03718 25475 ft 294 kts 279°
2026-05-07 03:06 33.17055 -86.06091 25066 ft 296 kts 279°
2026-05-07 03:06 33.17519 -86.08486 24659 ft 298 kts 279°
2026-05-07 03:06 33.17995 -86.10912 24254 ft 298 kts 279°
2026-05-07 03:07 33.18462 -86.13319 23854 ft 299 kts 279°
2026-05-07 03:07 33.18932 -86.15717 23458 ft 299 kts 279°
2026-05-07 03:07 33.19402 -86.18127 23058 ft 298 kts 278°
2026-05-07 03:07 33.19865 -86.20512 22663 ft 298 kts 279°
2026-05-07 03:08 33.20335 -86.22923 22275 ft 297 kts 278°
2026-05-07 03:08 33.20800 -86.25311 21889 ft 296 kts 279°
2026-05-07 03:08 33.21267 -86.27713 21485 ft 295 kts 279°
2026-05-07 03:08 33.21727 -86.30077 21099 ft 293 kts 278°
2026-05-07 03:09 33.22178 -86.32424 20724 ft 290 kts 279°
2026-05-07 03:09 33.22630 -86.34764 20334 ft 288 kts 278°
2026-05-07 03:09 33.23080 -86.37080 19961 ft 285 kts 278°
2026-05-07 03:09 33.23518 -86.39368 19582 ft 282 kts 279°
2026-05-07 03:10 33.23957 -86.41627 19205 ft 281 kts 279°
2026-05-07 03:10 33.24397 -86.43903 18827 ft 279 kts 279°
2026-05-07 03:10 33.24817 -86.46120 18457 ft 277 kts 279°
2026-05-07 03:10 33.25252 -86.48357 18141 ft 277 kts 278°
2026-05-07 03:11 33.25683 -86.50603 17783 ft 276 kts 278°
2026-05-07 03:11 33.26107 -86.52831 17432 ft 276 kts 278°
2026-05-07 03:11 33.26536 -86.55071 17051 ft 276 kts 279°
2026-05-07 03:11 33.26968 -86.57281 16694 ft 275 kts 278°
2026-05-07 03:12 33.27385 -86.59488 16354 ft 274 kts 279°
2026-05-07 03:12 33.27811 -86.61722 16000 ft 273 kts 279°
2026-05-07 03:12 33.28231 -86.63911 15633 ft 272 kts 279°
2026-05-07 03:12 33.28650 -86.66138 15264 ft 272 kts 278°
2026-05-07 03:13 33.29071 -86.68331 14914 ft 272 kts 279°
2026-05-07 03:13 33.29481 -86.70515 14568 ft 271 kts 279°
2026-05-07 03:13 33.29903 -86.72712 14213 ft 270 kts 278°
2026-05-07 03:13 33.30317 -86.74879 13862 ft 270 kts 278°
2026-05-07 03:14 33.30736 -86.77062 13504 ft 269 kts 278°
2026-05-07 03:14 33.31141 -86.79234 13152 ft 269 kts 278°
2026-05-07 03:14 33.31966 -86.83597 12449 ft 267 kts 278°
2026-05-07 03:15 33.32368 -86.85729 12205 ft 263 kts 279°
2026-05-07 03:15 33.32771 -86.87847 11998 ft 253 kts 278°
2026-05-07 03:15 33.33157 -86.89850 11754 ft 245 kts 278°
2026-05-07 03:15 33.33521 -86.91810 11515 ft 240 kts 278°
2026-05-07 03:16 33.33880 -86.93743 11265 ft 237 kts 278°
2026-05-07 03:16 33.34242 -86.95660 11021 ft 236 kts 278°
2026-05-07 03:16 33.34602 -86.97584 10693 ft 240 kts 278°
2026-05-07 03:16 33.34974 -86.99552 10362 ft 240 kts 278°
2026-05-07 03:17 33.35331 -87.01441 10038 ft 231 kts 278°
2026-05-07 03:17 33.35678 -87.03286 9723 ft 222 kts 277°
2026-05-07 03:17 33.36009 -87.05051 9434 ft 216 kts 277°
2026-05-07 03:17 33.36330 -87.06799 9159 ft 215 kts 278°
2026-05-07 03:18 33.36653 -87.08524 8878 ft 213 kts 277°
2026-05-07 03:18 33.36972 -87.10242 8595 ft 211 kts 277°
2026-05-07 03:18 33.37186 -87.11389 8411 ft 210 kts 278°
2026-05-07 03:18 33.37610 -87.13661 8046 ft 208 kts 278°
2026-05-07 03:19 33.37923 -87.15334 7774 ft 207 kts 278°
2026-05-07 03:19 33.38231 -87.17011 7516 ft 207 kts 279°
2026-05-07 03:19 33.38543 -87.18686 7245 ft 206 kts 279°
2026-05-07 03:19 33.38853 -87.20362 6973 ft 205 kts 279°
2026-05-07 03:20 33.39166 -87.22023 6692 ft 206 kts 279°
2026-05-07 03:20 33.39476 -87.23692 6403 ft 207 kts 279°
2026-05-07 03:20 33.39786 -87.25387 6121 ft 207 kts 278°
2026-05-07 03:20 33.40100 -87.27062 5874 ft 207 kts 279°
2026-05-07 03:21 33.40401 -87.28725 5593 ft 207 kts 282°
2026-05-07 03:21 33.40715 -87.30417 5325 ft 207 kts 283°
2026-05-07 03:21 33.41455 -87.31868 5115 ft 218 kts 322°
2026-05-07 03:21 33.42939 -87.32286 5138 ft 229 kts
2026-05-07 03:22 33.44377 -87.31413 5134 ft 244 kts 43°
2026-05-07 03:22 33.45092 -87.29576 5099 ft 251 kts 85°
2026-05-07 03:22 33.44812 -87.27516 4953 ft 253 kts 109°
2026-05-07 03:22 33.44470 -87.26172 4796 ft 257 kts 108°
2026-05-07 03:23 33.43819 -87.23384 4477 ft 262 kts 107°
2026-05-07 03:23 33.43279 -87.21322 4219 ft 258 kts 118°
2026-05-07 03:23 33.42046 -87.19888 4028 ft 245 kts 159°
2026-05-07 03:23 33.40428 -87.19688 3824 ft 229 kts 199°
2026-05-07 03:24 33.39183 -87.20711 3590 ft 215 kts 240°
2026-05-07 03:24 33.38874 -87.22369 3358 ft 207 kts 281°
2026-05-07 03:24 33.39357 -87.23970 3131 ft 204 kts 287°
2026-05-07 03:24 33.39723 -87.25616 3014 ft 202 kts 286°
2026-05-07 03:25 33.40071 -87.27240 2979 ft 199 kts 286°
2026-05-07 03:25 33.40392 -87.28833 2995 ft 196 kts 285°
2026-05-07 03:25 33.40708 -87.30398 2995 ft 195 kts 285°
2026-05-07 03:25 33.41276 -87.31845 2994 ft 191 kts 319°
2026-05-07 03:26 33.42506 -87.32342 3006 ft 192 kts
2026-05-07 03:26 33.43663 -87.31584 3006 ft 199 kts 49°
2026-05-07 03:26 33.44053 -87.29990 3010 ft 208 kts 94°
2026-05-07 03:26 33.43779 -87.28294 3000 ft 210 kts 100°
2026-05-07 03:27 33.43488 -87.26554 2995 ft 213 kts 100°
2026-05-07 03:27 33.43195 -87.24818 2996 ft 214 kts 99°
2026-05-07 03:27 33.42778 -87.23116 2990 ft 217 kts 122°
2026-05-07 03:27 33.41589 -87.22040 3010 ft 215 kts 167°
2026-05-07 03:28 33.40155 -87.22212 3007 ft 209 kts 212°
2026-05-07 03:28 33.39245 -87.23518 3018 ft 212 kts 255°
2026-05-07 03:28 33.39359 -87.25255 3022 ft 218 kts 295°
2026-05-07 03:28 33.39939 -87.26952 2995 ft 218 kts 287°
2026-05-07 03:29 33.40338 -87.28690 2994 ft 216 kts 287°
2026-05-07 03:29 33.40697 -87.30398 2995 ft 213 kts 286°
2026-05-07 03:29 33.41072 -87.32104 2990 ft 210 kts 286°
2026-05-07 03:29 33.40962 -87.33845 3025 ft 212 kts 253°
2026-05-07 03:30 33.40437 -87.35482 2978 ft 212 kts 251°
2026-05-07 03:30 33.39853 -87.37084 3017 ft 209 kts 248°
2026-05-07 03:30 33.39234 -87.38672 2909 ft 209 kts 250°
2026-05-07 03:30 33.38638 -87.40204 2976 ft 205 kts 251°
2026-05-07 03:31 33.38019 -87.41765 3014 ft 205 kts 248°
2026-05-07 03:31 33.37392 -87.43357 2719 ft 211 kts 248°
2026-05-07 03:31 33.36776 -87.44928 2429 ft 210 kts 249°
2026-05-07 03:31 33.36077 -87.46427 2247 ft 204 kts 231°
2026-05-07 03:32 33.35011 -87.47450 2279 ft 193 kts 224°
2026-05-07 03:32 33.33961 -87.48501 2059 ft 195 kts 223°
2026-05-07 03:32 33.32953 -87.49551 1873 ft 194 kts 222°
2026-05-07 03:32 33.31942 -87.50591 1750 ft 184 kts 224°
2026-05-07 03:33 33.31002 -87.51554 1880 ft 169 kts 225°
2026-05-07 03:33 33.30119 -87.52475 1788 ft 170 kts 225°
2026-05-07 03:33 33.29233 -87.53399 1773 ft 167 kts 225°
2026-05-07 03:33 33.28370 -87.54302 1709 ft 159 kts 227°
2026-05-07 03:34 33.27571 -87.55162 1481 ft 148 kts 224°
2026-05-07 03:34 33.26820 -87.55931 1283 ft 138 kts 223°
2026-05-07 03:34 33.26345 -87.56427 1196 ft 131 kts 221°
2026-05-07 03:34 33.25461 -87.57337 947 ft 124 kts 223°
2026-05-07 03:35 33.24814 -87.58003 811 ft 121 kts 225°
2026-05-07 03:35 33.24188 -87.58651 658 ft 119 kts 224°
2026-05-07 03:35 33.23560 -87.59295 515 ft 118 kts 226°
2026-05-07 03:35 33.22893 -87.59916 935 ft 126 kts 217°
2026-05-07 03:36 33.22223 -87.60515 1658 ft 124 kts 218°
2026-05-07 03:36 33.21428 -87.61020 2368 ft 128 kts 210°
2026-05-07 03:36 33.20498 -87.61583 2397 ft 175 kts 211°
2026-05-07 03:36 33.19338 -87.62315 2509 ft 203 kts 211°
2026-05-07 03:37 33.18019 -87.63165 2491 ft 217 kts 224°
2026-05-07 03:37 33.17105 -87.64571 2513 ft 222 kts 235°
2026-05-07 03:37 33.16410 -87.65521 2505 ft 226 kts 231°
2026-05-07 03:37 33.15368 -87.66995 2535 ft 234 kts 234°
2026-05-07 03:38 33.13667 -87.68541 2450 ft 236 kts 193°
2026-05-07 03:38 33.12064 -87.68326 2441 ft 230 kts 154°
2026-05-07 03:38 33.10934 -87.67040 2515 ft 227 kts 127°
2026-05-07 03:38 33.09887 -87.65568 2492 ft 237 kts 129°
2026-05-07 03:39 33.09149 -87.64567 2509 ft 244 kts 131°
2026-05-07 03:39 33.07628 -87.62472 2477 ft 255 kts 130°
2026-05-07 03:39 33.06445 -87.60857 2442 ft 260 kts 131°
2026-05-07 03:39 33.05254 -87.59230 2627 ft 259 kts 131°
2026-05-07 03:40 33.04067 -87.57597 2767 ft 272 kts 131°
2026-05-07 03:40 33.03148 -87.55615 2926 ft 272 kts 102°
2026-05-07 03:40 33.03134 -87.54133 2949 ft 263 kts 77°
2026-05-07 03:40 33.04413 -87.51887 2988 ft 245 kts 36°
2026-05-07 03:41 33.05267 -87.51009 2984 ft 243 kts 43°
2026-05-07 03:41 33.06765 -87.49044 2988 ft 236 kts 46°
2026-05-07 03:41 33.07835 -87.47559 2999 ft 233 kts 46°
2026-05-07 03:41 33.08877 -87.46087 2989 ft 229 kts 50°
2026-05-07 03:42 33.09901 -87.44647 3005 ft 225 kts 46°
2026-05-07 03:42 33.10914 -87.43219 2985 ft 225 kts 47°
2026-05-07 03:42 33.11916 -87.41804 3000 ft 223 kts 48°
2026-05-07 03:42 33.12928 -87.40402 3013 ft 221 kts 40°
2026-05-07 03:43 33.13812 -87.39709 3020 ft 238 kts 16°
2026-05-07 03:43 33.15934 -87.38802 4239 ft 246 kts 13°